Regional Weather Roundup
Issued by NWS

Home | Current Version | Previous Version | Text Only | Print | Product List | Glossary On
Versions: 1 2 3 4 5 6 7 8 9 10 11 12 13 14 15 16 17 18 19 20 21 22 23 24 25 26 27 28 29 30 31 32 33 34 35 36 37 38 39 40 41 42 43 44 45 46 47 48 49 50
000
ASUS46 KSEW 200310
RWRWA

WASHINGTON REGIONAL WEATHER ROUNDUP
NATIONAL WEATHER SERVICE SEATTLE WA
700 PM PST SUN FEB 19 2017

NOTE:"FAIR" INDICATES FEW OR NO CLOUDS BELOW 12,000 FEET WITH NO
SIGNIFICANT WEATHER AND/OR OBSTRUCTIONS TO VISIBILITY.

WAZ507-509-555>559-200400-
SEATTLE, TACOMA, EVERETT, AND VICINITY

CITY           SKY/WX    TMP DP  RH WIND       PRES   REMARKS
EVERETT        LGT RAIN  43  40  89 SE16G25   29.55R
BOEING FIELD   CLOUDY    46  41  82 S10       29.57R
RENTON         CLOUDY    47  39  74 S9G20     29.57R
SEATAC AIRPORT CLOUDY    46  38  73 S13       29.56R
JBLM-MCCHORD   CLOUDY    44  43  99 S7        29.57R
PUYALLUP         N/A     45  37  76 SE6G14    29.57S
BREMERTON      CLOUDY    43  39  87 S10       29.58R
JBLM-FT LEWIS  CLOUDY    42  42  99 SE8       29.57R
TACOMA NARROWS MOCLDY    44  39  82 S8        29.56R
$$

WAZ001-503-506-510-514-515-200400-
NORTH INTERIOR

CITY           SKY/WX    TMP DP  RH WIND       PRES   REMARKS
BELLINGHAM     CLOUDY    46  39  76 SE16G26   29.50R
FRIDAY HARBOR  LGT RAIN  46  40  79 SE17G26   29.49R
EASTSOUND      LGT RAIN  46  39  76 S6        29.47R
PORT ANGELES   MOCLDY    44  36  73 S5        29.47R
EDIZ HOOK      FAIR      44  41  87 CALM      29.47R
PORT TOWNSEND  CLOUDY    43  37  81 S9G22     29.51R
NAS WHIDBEY    CLOUDY    48  38  68 SE25G35   29.54R
ARLINGTON      CLOUDY    45  36  70 SE17      29.57R
BURLINGTON     CLOUDY    46  39  76 SE14G23   29.52R
$$

WAZ020-022-039-040-504-511-512-200400-
SOUTHWEST INTERIOR

CITY           SKY/WX    TMP DP  RH WIND       PRES   REMARKS
SHELTON        LGT RAIN  43  40  89 SE6       29.53R
OLYMPIA        CLOUDY    42  41  96 S13       29.57R
CHEHALIS       CLOUDY    45  41  87 S15G22    29.58R
KELSO          CLOUDY    43  41  93 VRB3      29.63R
VANCOUVER      CLOUDY    45  44  97 E8        29.63R
SCAPPOOSE, OR  LGT RAIN  42  42 100 CALM      29.62R
PORTLAND, OR   CLOUDY    43  42  97 E9        29.64R
$$

WAZ021-516-517-200400-
WASHINGTON COAST

CITY           SKY/WX    TMP DP  RH WIND       PRES   REMARKS
FORKS          LGT RAIN  41  41 100 SE3       29.49R
HOQUIAM        PTCLDY    45  44  97 SE9       29.53R
ASTORIA, OR    MOCLDY    45  41  86 S6        29.56R
$$

WAZ019-023-024-040-567>569-200400-
CASCADE MOUNTAINS AND COLUMBIA GORGE

CITY           SKY/WX    TMP DP  RH WIND       PRES   REMARKS
STAMPEDE PASS  NOT AVBL
TROUTDALE, OR  CLOUDY    44  42  93 E5        29.64S
THE DALLES, OR CLOUDY    40  37  89 NE6       29.65R
$$

WAZ026-027-041>044-520-521-200400-
EAST SLOPES

CITY           SKY/WX    TMP DP  RH WIND       PRES   REMARKS
OMAK           CLOUDY    37  32  82 SW6       29.62R
WENATCHEE      CLOUDY    35  34  96 SE3       29.61R
ELLENSBURG     CLOUDY    37  31  78 CALM      29.58R
YAKIMA         MOCLDY    40  35  83 CALM      29.61R
SUNNYSIDE ARPT NOT AVBL
$$

WAZ028-034-035-200400-
COLUMBIA BASIN

CITY           SKY/WX    TMP DP  RH WIND       PRES   REMARKS
EPHRATA        MOCLDY    33  28  81 N6        29.62R
MOSES LAKE     MOCLDY    33  30  88 N6        29.63R
PASCO          MOCLDY    42  35  76 SE3       29.64R
HERMISTON, OR  MOCLDY    40  36  86 N3        29.62R
$$

WAZ036>038-200400-
NORTHEAST WASHINGTON

CITY           SKY/WX    TMP DP  RH WIND       PRES   REMARKS
SPOKANE GEIGER PTCLDY    34  33  96 E3        29.63R
SPOKANE FELTS  CLEAR     35  34  96 NE5       29.65R
FAIRCHILD AFB  FOG       32  32 100 CALM      29.62R VSB 1/4
COEURDALENE,ID CLEAR     32  31  96 SE3       29.65S
DEER PARK      MOCLDY    33  31  92 NE6       29.65R
$$

WAZ029>033-200400-
SOUTHEAST WASHINGTON

CITY           SKY/WX    TMP DP  RH WIND       PRES   REMARKS
PULLMAN        MOCLDY    38  33  82 E7        29.66R
LEWISTON, ID   PTCLDY    43  33  68 S8        29.67R
WALLA WALLA    CLEAR     42  34  73 E9        29.62R
PENDLETON, OR  PTCLDY    43  35  73 S6        29.62R
$$



USA.gov is the U.S. government's official web portal to all federal, state and local government web resources and services.